Location: Unspecified
(0.0000°N, 0.0000°E)
Time: 04:47:04
(UTC+00:00)

Hubble Space Telescope - Pass Details

Date: 20 April 2019
Orbit: 536 x 540 km, 28.5° (Epoch: 16 June)

Event Time Altitude Azimuth Distance (km) Brightness Sun altitude
Exits shadow 03:48:16 11° 24° (NNE) 1,740 3.7 -32.0°
Drops below altitude 10° 03:48:24 10° 25° (NNE) 1,781 3.8 -31.9°
Sets 03:51:00 0° 40° (NE) 2,670 5.0 -31.3°
